Location: Newark
(63.1158°N, 8.1461°E)
Time: 23:11:55
(UTC+00:00)

Envisat - Pass Details

Date: 13 December 2019
Orbit: 764 x 766 km, 98.1° (Epoch: 22 January)

Event Time Altitude Azimuth Distance (km) Brightness Sun altitude
Rises 06:02:36 0° 18° (NNE) 3,251 6.2 -16.0°
Reaches altitude 10° 06:05:02 10° 25° (NNE) 2,320 5.5 -15.8°
Maximum altitude 06:09:57 46° 98° (E) 1,035 4.2 -15.2°
Drops below altitude 10° 06:14:49 10° 172° (S) 2,305 5.9 -14.7°
Sets 06:17:13 0° 178° (S) 3,227 6.6 -14.5°
